• In Denmark
  • List of Countries
  • For 7 days
  • Water Temperature
  • Satellite Maps
  • Weather Map
  • Weather Widgets
  • user-avatar
    Login

    Hourly Weather Perth

    Today, 24 November, Friday

    Time Temperature Precipitation Wind Pressure Humidity
    00:00 +21°C° 0 mm 3 mps 757 mmHg 35%
    01:00 +21°C° 0 mm 3 mps 757 mmHg 32%
    02:00 +21°C° 0 mm 3 mps 757 mmHg 29%
    03:00 +21°C° 0 mm 3 mps 757 mmHg 31%
    04:00 +20°C° 0 mm 3 mps 757 mmHg 33%
    05:00 +20°C° 0 mm 3 mps 756 mmHg 35%
    06:00 +22°C° 0 mm 3 mps 756 mmHg 33%
    07:00 +25°C° 0 mm 3 mps 757 mmHg 32%
    08:00 +26°C° 0 mm 3 mps 757 mmHg 32%
    09:00 +29°C° 0 mm 3 mps 757 mmHg 28%
    10:00 +31°C° 0 mm 3 mps 756 mmHg 24%
    11:00 +35°C° 0 mm 3 mps 756 mmHg 20%
    12:00 +35°C° 0 mm 3 mps 756 mmHg 20%
    13:00 +35°C° 0 mm 4 mps 755 mmHg 19%
    14:00 +36°C° 0 mm 5 mps 755 mmHg 19%
    15:00 +35°C° 0 mm 5 mps 754 mmHg 21%
    16:00 +34°C° 0 mm 6 mps 754 mmHg 24%
    17:00 +32°C° 0 mm 6 mps 754 mmHg 26%
    18:00 +29°C° 0 mm 6 mps 754 mmHg 32%
    19:00 +27°C° 0 mm 6 mps 755 mmHg 38%
    20:00 +24°C° 0 mm 6 mps 755 mmHg 44%
    21:00 +23°C° 0 mm 6 mps 755 mmHg 49%
    22:00 +22°C° 0 mm 7 mps 756 mmHg 54%
    23:00 +22°C° 0 mm 7 mps 756 mmHg 58%

    Tomorrow, 25 November, Saturday

    Time Temperature Precipitation Wind Pressure Humidity
    00:00 +21°C° 0 mm 6 mps 756 mmHg 61%
    01:00 +20°C° 0 mm 6 mps 756 mmHg 63%
    02:00 +20°C° 0 mm 6 mps 756 mmHg 66%
    03:00 +19°C° 0 mm 6 mps 756 mmHg 67%
    04:00 +19°C° 0 mm 5 mps 757 mmHg 68%
    05:00 +17°C° 0 mm 5 mps 757 mmHg 69%
    06:00 +19°C° 0 mm 5 mps 757 mmHg 62%
    07:00 +21°C° 0 mm 6 mps 757 mmHg 55%
    08:00 +22°C° 0 mm 6 mps 758 mmHg 48%
    09:00 +26°C° 0 mm 6 mps 757 mmHg 42%
    10:00 +28°C° 0 mm 6 mps 757 mmHg 36%
    11:00 +30°C° 0 mm 6 mps 757 mmHg 30%
    12:00 +32°C° 0 mm 6 mps 757 mmHg 29%
    13:00 +33°C° 0 mm 6 mps 756 mmHg 28%
    14:00 +34°C° 0 mm 7 mps 756 mmHg 27%
    15:00 +33°C° 0 mm 7 mps 756 mmHg 30%
    16:00 +32°C° 0 mm 7 mps 755 mmHg 33%
    17:00 +32°C° 0 mm 7 mps 755 mmHg 37%
    18:00 +29°C° 0 mm 7 mps 756 mmHg 42%
    19:00 +27°C° 0 mm 6 mps 756 mmHg 47%
    20:00 +24°C° 0 mm 6 mps 756 mmHg 52%
    21:00 +23°C° 0 mm 6 mps 757 mmHg 54%
    22:00 +23°C° 0 mm 6 mps 757 mmHg 57%
    23:00 +22°C° 0 mm 6 mps 757 mmHg 59%

    Day after tomorrow, 26 November, Sunday

    Time Temperature Precipitation Wind Pressure Humidity
    00:00 +22°C° 0 mm 6 mps 757 mmHg 62%
    01:00 +21°C° 0 mm 6 mps 757 mmHg 64%
    02:00 +20°C° 0 mm 6 mps 756 mmHg 67%
    03:00 +20°C° 0 mm 5 mps 756 mmHg 68%
    04:00 +19°C° 0 mm 5 mps 756 mmHg 69%
    05:00 +19°C° 0 mm 5 mps 756 mmHg 69%
    06:00 +20°C° 0 mm 5 mps 756 mmHg 63%
    07:00 +21°C° 0 mm 5 mps 756 mmHg 58%
    08:00 +23°C° 0 mm 5 mps 756 mmHg 52%
    09:00 +26°C° 0 mm 5 mps 756 mmHg 45%
    10:00 +29°C° 0 mm 5 mps 756 mmHg 38%
    11:00 +33°C° 0 mm 4 mps 755 mmHg 30%
    12:00 +33°C° 0 mm 5 mps 754 mmHg 29%
    13:00 +34°C° 0 mm 5 mps 754 mmHg 29%
    14:00 +35°C° 0 mm 5 mps 753 mmHg 28%
    15:00 +35°C° 0 mm 5 mps 752 mmHg 29%
    16:00 +34°C° 0 mm 6 mps 752 mmHg 31%
    17:00 +33°C° 0 mm 6 mps 751 mmHg 33%
    18:00 +30°C° 0 mm 6 mps 751 mmHg 38%
    19:00 +28°C° 0 mm 6 mps 752 mmHg 43%
    20:00 +26°C° 0 mm 6 mps 752 mmHg 48%
    21:00 +26°C° 0 mm 5 mps 752 mmHg 52%
    22:00 +25°C° 0 mm 5 mps 752 mmHg 56%
    23:00 +23°C° 0 mm 5 mps 753 mmHg 60%

    27 November, Monday

    Time Temperature Precipitation Wind Pressure Humidity
    00:00 +22°C° 0 mm 5 mps 752 mmHg 64%
    01:00 +21°C° 0 mm 4 mps 752 mmHg 68%
    02:00 +20°C° 0 mm 4 mps 752 mmHg 72%
    03:00 +20°C° 0 mm 3 mps 752 mmHg 75%
    04:00 +19°C° 0 mm 3 mps 752 mmHg 77%
    05:00 +19°C° 0 mm 2 mps 752 mmHg 80%
    06:00 +20°C° 0 mm 2 mps 752 mmHg 73%
    07:00 +23°C° 0 mm 2 mps 752 mmHg 67%
    08:00 +25°C° 0 mm 2 mps 752 mmHg 61%
    09:00 +27°C° 0 mm 3 mps 752 mmHg 55%
    10:00 +29°C° 0 mm 3 mps 752 mmHg 49%
    11:00 +30°C° 0 mm 4 mps 752 mmHg 44%
    12:00 +30°C° 0 mm 4 mps 751 mmHg 44%
    13:00 +30°C° 0 mm 5 mps 751 mmHg 44%
    14:00 +30°C° 0 mm 5 mps 750 mmHg 44%
    15:00 +29°C° 0 mm 6 mps 750 mmHg 47%
    16:00 +28°C° 0 mm 6 mps 750 mmHg 50%
    17:00 +27°C° 0 mm 6 mps 750 mmHg 53%
    18:00 +25°C° 0 mm 5 mps 750 mmHg 58%
    19:00 +23°C° 0 mm 5 mps 751 mmHg 64%
    20:00 +22°C° 0 mm 5 mps 752 mmHg 70%
    21:00 +21°C° 0 mm 5 mps 752 mmHg 73%
    22:00 +21°C° 0 mm 5 mps 752 mmHg 75%
    23:00 +20°C° 0 mm 5 mps 753 mmHg 78%

    28 November, Tuesday

    Time Temperature Precipitation Wind Pressure Humidity
    00:00 +20°C° 0 mm 4 mps 752 mmHg 80%
    01:00 +19°C° 0 mm 4 mps 752 mmHg 82%
    02:00 +19°C° 0 mm 4 mps 752 mmHg 85%
    03:00 +18°C° 0 mm 4 mps 752 mmHg 86%
    04:00 +18°C° 0 mm 3 mps 753 mmHg 88%
    05:00 +17°C° 0 mm 3 mps 753 mmHg 89%
    06:00 +18°C° 0 mm 4 mps 753 mmHg 83%
    07:00 +19°C° 0 mm 4 mps 754 mmHg 77%
    08:00 +20°C° 0 mm 4 mps 755 mmHg 70%
    09:00 +22°C° 0 mm 4 mps 755 mmHg 63%
    10:00 +23°C° 0 mm 4 mps 755 mmHg 56%
    11:00 +25°C° 0 mm 4 mps 755 mmHg 49%
    12:00 +26°C° 0 mm 5 mps 754 mmHg 48%
    13:00 +26°C° 0 mm 6 mps 754 mmHg 46%
    14:00 +26°C° 0 mm 6 mps 754 mmHg 44%
    15:00 +24°C° 0 mm 6 mps 754 mmHg 46%
    16:00 +23°C° 0 mm 7 mps 754 mmHg 49%
    17:00 +22°C° 0 mm 7 mps 755 mmHg 52%
    18:00 +21°C° 0 mm 6 mps 755 mmHg 57%
    19:00 +19°C° 0 mm 6 mps 756 mmHg 62%
    20:00 +17°C° 0 mm 5 mps 756 mmHg 68%
    21:00 +16°C° 0 mm 5 mps 757 mmHg 71%
    22:00 +17°C° 0 mm 4 mps 757 mmHg 74%
    23:00 +17°C° 0 mm 4 mps 758 mmHg 77%

    29 November, Wednesday

    Time Temperature Precipitation Wind Pressure Humidity
    00:00 +15°C° 0 mm 4 mps 758 mmHg 79%
    01:00 +15°C° 0 mm 4 mps 758 mmHg 81%
    02:00 +14°C° 0 mm 4 mps 758 mmHg 83%
    03:00 +14°C° 0 mm 4 mps 758 mmHg 83%
    04:00 +14°C° 0 mm 4 mps 758 mmHg 84%
    05:00 +13°C° 0 mm 4 mps 758 mmHg 85%
    06:00 +15°C° 0 mm 4 mps 759 mmHg 75%
    07:00 +18°C° 0 mm 4 mps 759 mmHg 66%
    08:00 +19°C° 0 mm 5 mps 760 mmHg 56%
    09:00 +22°C° 0 mm 4 mps 759 mmHg 49%
    10:00 +25°C° 0 mm 4 mps 759 mmHg 42%
    11:00 +27°C° 0 mm 3 mps 759 mmHg 35%
    12:00 +28°C° 0 mm 4 mps 758 mmHg 34%
    13:00 +29°C° 0 mm 5 mps 757 mmHg 32%
    14:00 +30°C° 0 mm 5 mps 757 mmHg 30%
    15:00 +29°C° 0 mm 6 mps 757 mmHg 32%
    16:00 +28°C° 0 mm 6 mps 756 mmHg 34%
    17:00 +27°C° 0 mm 7 mps 756 mmHg 36%
    18:00 +24°C° 0 mm 7 mps 756 mmHg 41%
    19:00 +23°C° 0 mm 6 mps 757 mmHg 46%
    20:00 +21°C° 0 mm 6 mps 757 mmHg 51%
    21:00 +21°C° 0 mm 7 mps 757 mmHg 51%
    22:00 +20°C° 0 mm 7 mps 757 mmHg 51%
    23:00 +20°C° 0 mm 7 mps 757 mmHg 52%
    Show more